Regional Weather Roundup
Issued by NWS Burlington, VT

Home | Current Version | Previous Version | Text Only | Print | Product List | Glossary On
Versions: 1 2 3 4 5 6 7 8 9 10 11 12 13 14 15 16 17 18 19 20 21 22 23 24 25 26 27 28 29 30 31 32 33 34 35 36 37 38 39 40 41 42 43 44 45 46 47 48 49 50
000
ASUS41 KBTV 300610
RWRBTV
VERMONT REGIONAL WEATHER ROUNDUP
NATIONAL WEATHER SERVICE BURLINGTON VT
200 AM EDT THU MAR 30 2017

NOTE: "FAIR" INDICATES FEW OR NO CLOUDS BELOW 12,000 FEET WITH NO
SIGNIFICANT WEATHER AND/OR OBSTRUCTIONS TO VISIBILITY.

* THESE REPORTS ARE NOT UNDER NWS QUALITY CONTROL AND/OR DO NOT
  REPORT WEATHER SUCH AS PRECIPITATION AND FOG.

VTZ001>019-300700-
_____VERMONT_____


CITY           SKY/WX    TMP DP  RH WIND       PRES   REMARKS
BURLINGTON     CLOUDY    35  21  56 N7        30.23F WCI  29
6HR MIN TEMP:  34; 6HR MAX TEMP:  40;

MONTPELIER     CLOUDY    31  18  58 NW6       30.20F WCI  25
6HR MIN TEMP:  31; 6HR MAX TEMP:  33;

MORRISVILLE    MOCLDY    31  19  61 N6        30.21F WCI  25
6HR MIN TEMP:  31; 6HR MAX TEMP:  35;

ST. JOHNSBURY*   N/A     33  20  58 MISG      30.16F
6HR MIN TEMP:  33; 6HR MAX TEMP:  36;

LYNDONVILLE*   CLOUDY   N/A N/A N/A MISG        N/A
MIDDLEBURY*    CLOUDY    34  20  57 N9        30.21R WCI  26
6HR MIN TEMP:  32; 6HR MAX TEMP:  36;

RUTLAND*       CLOUDY    33  21  61 NW8       30.19S WCI  26
6HR MIN TEMP:  32; 6HR MAX TEMP:  34;

SPRINGFIELD    CLOUDY    36  16  44 N9G23     30.18S WCI  29
6HR MIN TEMP:  36; 6HR MAX TEMP:  38;

HIGHGATE*      MOCLDY    32  22  67 N5        30.24S WCI  27
6HR MIN TEMP:  32; 6HR MAX TEMP:  37;

NEWPORT*       CLOUDY    31  20  65 N16G22    30.18F WCI  20
6HR MIN TEMP:  31; 6HR MAX TEMP:  34;

BENNINGTON     CLEAR     33  20  58 N6        30.18F WCI  28
6HR MIN TEMP:  25; 6HR MAX TEMP:  38;

SUTTON*          N/A     28 N/A N/A MISG        N/A

_____LAKE CHAMPLAIN_____


CITY           SKY/WX    TMP DP  RH WIND       PRES   REMARKS
BURTON ISLAND*   N/A     34  27  75 N7          N/A  WCI  28
COLCHESTER RF*   N/A     36  27  69 N14         N/A  WCI  27

$$

NYZ007-026>031-035-052-083-087-300700-
_____NORTHERN NEW YORK_____


CITY           SKY/WX    TMP DP  RH WIND       PRES   REMARKS
PLATTSBURGH    CLOUDY    34  20  56 N8        30.25S WCI  27
6HR MIN TEMP:  33; 6HR MAX TEMP:  40;

SARANAC LAKE   CLOUDY    30  17  58 NE6       30.18S WCI  24
6HR MIN TEMP:  30; 6HR MAX TEMP:  33;

MASSENA        PTCLDY    34  20  56 NE7       30.29S WCI  28
6HR MIN TEMP:  34; 6HR MAX TEMP:  39;

POTSDAM*       MOCLDY    30  25  80 NE6       30.26F WCI  24
WATERTOWN      CLEAR     25  22  88 CALM      30.27S
6HR MIN TEMP:  24; 6HR MAX TEMP:  34;

FT DRUM        CLEAR     29  20  69 E6        30.24F WCI  23
6HR MIN TEMP:  29; 6HR MAX TEMP:  36;

ALBANY         PTCLDY    32  20  61 N5        30.22F WCI  27
6HR MIN TEMP:  31; 6HR MAX TEMP:  41;

GLENS FALLS    MOCLDY    29  22  75 CALM      30.22S
6HR MIN TEMP:  29; 6HR MAX TEMP:  39;


$$
NHZ002-005-011-300700-
_____NEW HAMPSHIRE_____


CITY           SKY/WX    TMP DP  RH WIND       PRES   REMARKS
LEBANON        CLOUDY    36  20  52 N12G21    30.17S WCI  28
6HR MIN TEMP:  35; 6HR MAX TEMP:  37;

KEENE          CLOUDY    32  26  78 VRB3      30.18S
6HR MIN TEMP:  27; 6HR MAX TEMP:  38;

MT WASHINGTON  SNOWSHWR   7   7 100 N58         N/A  VSB 1/8 WCI -23
6HR MIN TEMP:   7; 6HR MAX TEMP:  12; 6HR PCP:  0.11;

PLYMOUTH       CLOUDY    35  20  55 NW7G16    30.14F WCI  29
6HR MIN TEMP:  35; 6HR MAX TEMP:  37;

WHITEFIELD     CLOUDY    32  18  56 N6        30.14F WCI  26
6HR MIN TEMP:  32; 6HR MAX TEMP:  35;


$$

_____REGIONAL QUEBEC LOCATIONS_____


CITY           SKY/WX    TMP DP  RH WIND       PRES   REMARKS
MONTREAL       MOCLDY    36  19  51 N8        30.26F WCI  29
QUEBEC CITY    PTCLDY    30  19  64 NW9       30.18F WCI  22
SHERBROOKE     CLOUDY    30  21  69 NW8       30.17F WCI  23

_____REGIONAL ONTARIO LOCATIONS_____


CITY           SKY/WX    TMP DP  RH WIND       PRES   REMARKS
OTTAWA         CLEAR     30  21  69 NW5       30.28F WCI  25

______KEY______
VSB  - VISIBILITY IN MILES
WCI  - WIND CHILL INDEX
HX   - HEAT INDEX
$$
NNNN




USA.gov is the U.S. government's official web portal to all federal, state and local government web resources and services.